Location: Choisy
(48.7685°N, 2.4187°E)
Time: 02:11:22
(UTC+00:00)

Cosmos 1821 Rocket - Pass Details

Date: 24 October 2021
Orbit: 944 x 1005 km, 82.9° (Epoch: 05 December)

Event Time Altitude Azimuth Distance (km) Brightness Sun altitude
Rises 17:14:31 0° 181° (S) 3,719 7.2 -5.8°
Reaches altitude 10° 17:17:03 10° 180° (S) 2,772 6.5 -6.2°
Maximum altitude 17:23:25 76° 96° (E) 1,033 4.0 -7.2°
Drops below altitude 10° 17:29:45 10° 12° (NNE) 2,763 6.2 -8.2°
Sets 17:32:16 0° 11° (N) 3,708 6.8 -8.6°
